Regional Weather Roundup
Issued by NWS

Home | Current Version | Previous Version | Graphics & Text | Print | Product List | Glossary On
Versions: 1 2 3 4 5 6 7 8 9 10 11 12 13 14 15 16 17 18 19 20 21 22 23 24 25 26 27 28 29 30 31 32 33 34 35 36 37 38 39 40 41 42 43 44 45 46 47 48 49 50
000
ASUS43 KBIS 030120
RWRND

NORTH DAKOTA REGIONAL WEATHER ROUNDUP
NATIONAL WEATHER SERVICE BISMARCK ND
800 PM CDT TUE SEP 02 2014

NOTE: "FAIR" INDICATES FEW OR NO CLOUDS BELOW 12,000 FEET WITH NO
SIGNIFICANT WEATHER AND/OR OBSTRUCTIONS TO VISIBILITY.


NDZ001>003-009>011-017-030200-
NORTHWEST NORTH DAKOTA

CITY           SKY/WX    TMP DP  RH WIND       PRES   REMARKS
WILLISTON      PTCLDY    71  44  37 S3        29.73F
MINOT          CLEAR     65  48  54 NW7       29.72S
MINOT AFB      CLEAR     69  49  48 NW6       29.72R
$$

NDZ018>021-031>035-040>046-030200-
SOUTHWEST NORTH DAKOTA

CITY           SKY/WX    TMP DP  RH WIND       PRES   REMARKS
BISMARCK       PTCLDY    71  52  50 W5        29.75S
DICKINSON      MOCLDY    67  51  56 W5        29.77F
GARRISON         N/A     65  53  65 W5        29.74S
HETTINGER ARPT PTCLDY    70  50  49 NW5       29.80S
$$

NDZ004>008-012>016-024-026-027-054-030200-
NORTHEAST NORTH DAKOTA

CITY           SKY/WX    TMP DP  RH WIND       PRES   REMARKS
GRAND FORKS    PTCLDY    71  53  52 SW7       29.67S
GRND FRKS AFB  CLEAR     68  59  73 SW6       29.69R
DEVILS LAKE    CLEAR     66  52  59 NW7       29.70R
$$

NDZ022-023-025-028>030-036>039-047>053-030200-
SOUTHEAST NORTH DAKOTA

CITY           SKY/WX    TMP DP  RH WIND       PRES   REMARKS
FARGO          PTCLDY    73  57  57 S10       29.72S
JAMESTOWN      CLEAR     67  52  58 NW6       29.74S
$$



USA.gov is the U.S. government's official web portal to all federal, state and local government web resources and services.